EW2441 Weather Reports


time (UTC)temp
C
wind
direction
speed
KPH
gust
KPH
rain 1hr
cm
rain 24hr
cm
rain mn
cm
humidity
%
barometer
mb
20260508054504 7 211 0.0 3.2 0.00 0.00 0.00 74 1012.4
20260508053005 7 240 0.0 1.6 0.00 0.00 0.00 75 1012.6
20260508051504 7 240 0.0 1.6 0.00 0.00 0.00 73 1012.8
20260508050005 6 222 0.0 4.8 0.00 0.00 0.00 74 1012.9
20260508044504 6 245 0.0 3.2 0.00 0.00 0.00 74 1012.9
20260508041504 5 234 0.0 3.2 0.00 0.00 0.00 78 1012.7
20260508040006 3 231 1.6 9.7 0.00 0.00 0.00 82 1012.9
20260508034505 3 0 0.0 0.0 0.00 0.00 0.00 85 1012.9
20260508033005 3 0 0.0 0.0 0.00 0.00 0.00 83 1012.8
20260508031504 3 0 0.0 0.0 0.00 0.00 0.00 82 1012.7
20260508030005 4 0 0.0 0.0 0.00 0.00 0.00 80 1012.8
20260508024505 5 0 0.0 0.0 0.00 0.00 0.00 78 1012.9
20260508021504 5 0 0.0 0.0 0.00 0.00 0.00 71 1012.7
20260508020005 6 0 0.0 0.0 0.00 0.00 0.00 68 1012.7
20260508014505 6 0 0.0 0.0 0.00 0.00 0.00 63 1012.6
20260508013005 7 246 0.0 1.6 0.00 0.00 0.00 60 1012.6
20260508011505 8 0 0.0 0.0 0.00 0.00 0.00 56 1012.6
20260508010005 9 0 0.0 0.0 0.00 0.00 0.00 54 1012.4
20260508004504 10 0 0.0 0.0 0.00 0.00 0.00 51 1012.4
20260508003006 10 268 1.6 9.7 0.00 0.00 0.00 45 1012.3
20260508001504 11 286 3.2 11.3 0.00 0.00 0.00 44 1012.2
20260508000005 11 281 3.2 12.9 0.00 0.00 0.00 43 1011.9
20260507234504 11 290 4.8 14.5 0.00 0.00 0.00 42 1011.8
20260507233005 12 272 4.8 17.7 0.00 0.00 0.00 41 1011.8
20260507231504 12 271 4.8 14.5 0.00 0.00 0.00 41 1011.8
20260507230005 12 291 8.0 22.5 0.00 0.00 0.00 40 1011.9
20260507224505 12 297 8.0 29.0 0.00 0.00 0.00 38 1011.9
20260507223005 12 297 6.4 22.5 0.00 0.00 0.00 38 1011.9
20260507221504 13 287 8.0 22.5 0.00 0.00 0.00 37 1011.9
20260507220005 12 286 6.4 24.1 0.00 0.00 0.00 47 1012.0
20260507213005 12 298 6.4 19.3 0.00 0.00 0.00 50 1011.6
20260507204504 12 318 4.8 16.1 0.00 0.00 0.00 52 1011.2
20260507200005 13 309 4.8 14.5 0.00 0.00 0.00 47 1010.9
20260507194504 13 302 4.8 20.9 0.00 0.00 0.00 47 1011.1
20260507193005 12 342 4.8 12.9 0.00 0.00 0.00 48 1011.3
20260507191504 12 339 6.4 20.9 0.00 0.00 0.00 46 1011.3
20260507184504 12 304 4.8 20.9 0.00 0.00 0.00 48 1011.4
20260507183005 12 300 4.8 12.9 0.00 0.00 0.00 51 1011.4
20260507181504 12 300 4.8 12.9 0.00 0.00 0.00 49 1011.4
20260507180004 12 322 3.2 14.5 0.00 0.00 0.00 51 1011.4
20260507174504 12 282 4.8 16.1 0.00 0.00 0.00 50 1011.5
20260507171504 12 281 6.4 16.1 0.00 0.00 0.00 47 1011.5
20260507164505 13 275 6.4 17.7 0.00 0.00 0.00 44 1011.6
20260507163006 14 241 4.8 19.3 0.00 0.00 0.00 42 1011.6
20260507161503 13 301 4.8 14.5 0.00 0.00 0.00 41 1011.7
20260507160005 14 271 3.2 12.9 0.00 0.00 0.00 41 1011.7
20260507153005 13 224 4.8 16.1 0.00 0.00 0.00 42 1011.9
20260507151504 13 220 3.2 11.3 0.00 0.00 0.00 44 1012.0
20260507150005 12 272 3.2 14.5 0.00 0.00 0.00 48 1012.0
20260507144504 12 281 3.2 14.5 0.00 0.00 0.00 48 1012.0
20260507143004 12 254 3.2 11.3 0.00 0.00 0.00 50 1012.1
20260507141504 11 352 3.2 8.0 0.00 0.00 0.00 55 1012.3
20260507140005 11 267 4.8 12.9 0.00 0.00 0.00 58 1012.4
20260507134504 10 248 3.2 6.4 0.00 0.00 0.00 65 1012.6
20260507133005 10 260 1.6 11.3 0.00 0.00 0.00 68 1012.8
20260507131504 10 275 3.2 9.7 0.00 0.00 0.00 68 1012.7
20260507130005 8 229 1.6 8.0 0.00 0.00 0.00 71 1012.6
20260507124504 8 264 3.2 6.4 0.00 0.00 0.00 72 1012.7
20260507121504 7 228 3.2 9.7 0.00 0.00 0.00 76 1012.7
20260507114504 5 220 1.6 6.4 0.00 0.00 0.00 85 1012.6
20260507111506 3 203 0.0 3.2 0.00 0.00 0.00 93 1012.4
20260507104504 3 183 0.0 1.6 0.00 0.00 0.00 93 1012.3
20260507103005 3 168 0.0 1.6 0.00 0.00 0.00 93 1012.2
20260507101504 3 161 0.0 3.2 0.00 0.00 0.00 93 1012.3
20260507100005 3 113 0.0 1.6 0.00 0.00 0.00 93 1012.2
20260507094504 3 112 0.0 1.6 0.00 0.03 0.00 93 1012.1
20260507091504 2 0 0.0 0.0 0.00 0.13 0.00 93 1012.3
20260507084504 2 111 0.0 1.6 0.00 0.18 0.00 92 1012.3
20260507083005 2 0 0.0 0.0 0.00 0.23 0.00 91 1012.3
20260507081504 2 0 0.0 0.0 0.00 0.30 0.00 91 1012.4
20260507080006 3 0 0.0 0.0 0.00 0.38 0.00 91 1012.5
20260507074504 3 0 0.0 0.0 0.00 0.51 0.00 91 1012.5
20260507071504 3 0 0.0 0.0 0.00 0.74 0.00 89 1012.5
20260507070009 3 111 0.0 3.2 0.00 0.81 0.00 89 1012.6
20260507064503 4 110 0.0 1.6 0.00 0.84 0.00 88 1012.7
20260507060004 5 110 0.0 1.6 0.00 1.04 0.00 85 1013.1